Regional Weather Roundup
Issued by NWS

Home | Current Version | Previous Version | Graphics & Text | Print | Product List | Glossary On
Versions: 1 2 3 4 5 6 7 8 9 10 11 12 13 14 15 16 17 18 19 20 21 22 23 24 25 26 27 28 29 30 31 32 33 34 35 36 37 38 39 40 41 42 43 44 45 46 47 48 49 50
653
ASUS44 KMEG 220710
RWRTN
TENNESSEE HOURLY STATE WEATHER ROUNDUP
NATIONAL WEATHER SERVICE MEMPHIS TN
200 AM CDT SUN APR 22 2018

TNZ002-004-019-021-049-052-054-088>092-220800-
WEST TENNESSEE

CITY           SKY/WX    TMP DP  RH WIND       PRES   REMARKS
MEMPHIS INTL   LGT RAIN  62  58  86 E7        30.05S
NWS MEMPHIS      N/A     59 N/A N/A MISG        N/A
JACKSON        CLOUDY    60  53  77 CALM      30.09S
DYERSBURG      LGT RAIN  62  48  60 E5        30.11R
SOMERVILLE     MOCLDY    59  54  82 CALM      30.05F
COVINGTON      CLOUDY    57  54  88 E3        30.08S
UNION CITY     CLOUDY    59  46  63 NE8       30.10F
BOLIVAR        CLOUDY    61  52  72 CALM      30.07F
PARIS          CLOUDY    63  39  42 NE7       30.12F
HUNTINGDON     MOCLDY    64  41  42 E8G14     30.10F
LEXINGTON      CLOUDY    64  45  48 VRB6      30.09F
SELMER         CLOUDY    63  46  55 E6        30.07F
SAVANNAH       CLOUDY    66  48  52 SE7       30.09F
$$

TNZ008-025-027-028-033-062-065-066-220800-
NORTH MIDDLE TENNESSEE

CITY           SKY/WX    TMP DP  RH WIND       PRES   REMARKS
NASHVILLE      CLOUDY    61  39  44 S6        30.17F
PORTLAND       CLOUDY    57  37  47 CALM      30.18S
CLARKSVILLE    MOCLDY    58  38  47 E8        30.16S
SMYRNA         FAIR      55  44  66 CALM      30.19S
COOKEVILLE     MOCLDY    52  41  66 SE5       30.18F
LIVINGSTON     SUNNY     61  37  41 S6        30.19F
GALLATIN       CLOUDY    54  41  62 CALM      30.21S
CROSSVILLE     FAIR      55  36  48 SE3       30.23F
ROCKWOOD       CLOUDY    54  36  50 CALM      30.23F
$$

TNZ061-075-076-078-094-096-097-220800-
SOUTH MIDDLE TENNESSEE

CITY           SKY/WX    TMP DP  RH WIND       PRES   REMARKS
LEWISBURG      CLOUDY    57  48  72 CALM      30.16F
FAYETTEVILLE   CLOUDY    64  43  45 SE8       30.17R
TULLAHOMA      CLOUDY    63  41  45 SE6       30.18S
WINCHESTER     CLOUDY    64  39  39 VRB5      30.17F
MCMINNVILLE    PTCLDY    61  39  44 VRB3      30.18F
COLUMBIA       MOCLDY    57  52  82 E5        30.13F
SHELBYVILLE    CLOUDY    61  41  48 SE5       30.17S
$$

TNZ017-018-042-046-047-220800-
NORTHEAST TENNESSEE

CITY           SKY/WX    TMP DP  RH WIND       PRES   REMARKS
TRI CITIES     FAIR      46  37  71 CALM      30.26F
ELIZABETHTON   FAIR      45  37  76 CALM      30.28S
$$

TNZ012-013-036-069-073-074-220800-
CENTRAL EAST TENNESSEE

CITY           SKY/WX    TMP DP  RH WIND       PRES   REMARKS
KNOXVILLE      CLOUDY    50  41  71 NE5       30.22F
OAK RIDGE      FAIR      49  42  77 CALM      30.25F
DOWNTOWN KNOXV CLEAR     46  45  93 CALM      30.24F
GATLINBURG     MOCLDY    50  39  66 CALM      30.23F
MORRISTOWN     CLEAR     48  37  66 CALM      30.24S
JACKSBORO      CLEAR     45  41  87 CALM      30.27F
$$

TNZ083-085-099-220800-
SOUTHEAST TENNESSEE

CITY           SKY/WX    TMP DP  RH WIND       PRES   REMARKS
CHATTANOOGA    CLOUDY    57  47  69 N3        30.22F
DAYTON         CLOUDY    50  48  93 CALM      30.22S
$$

SKY/WX REPORTED AS FAIR MEANS FEW OR NO CLOUDS BELOW
12 THOUSAND FEET.





USA.gov is the U.S. government's official web portal to all federal, state and local government web resources and services.